Location: ?????
(55.6500°N, 37.2500°E)
Time: 05:58:03
(UTC+00:00)

Cosmos 2112 Rocket - Pass Details

Date: 19 May 2025
Orbit: 753 x 782 km, 74.0° (Epoch: 15 June)

Event Time Altitude Azimuth Distance (km) Brightness Sun altitude
Exits shadow 22:01:01 21° 187° (S) 1,665 5.1 -14.0°
Maximum altitude 22:04:26 63° 112° (ESE) 859 4.2 -14.0°
Drops below altitude 10° 22:09:36 10° 32° (NNE) 2,307 7.6 -13.8°
Sets 22:11:59 0° 30° (NNE) 3,233 8.7 -13.8°
